Regional Weather Roundup
Issued by NWS Goodland, KS

Home | Current Version | Previous Version | Graphics & Text | Print | Product List | Glossary On
Versions: 1 2 3 4 5 6 7 8 9 10 11 12 13 14 15 16 17 18 19 20 21 22 23 24 25 26 27 28 29 30 31 32 33 34 35 36 37 38 39 40 41 42 43 44 45 46 47 48 49 50
390
ASUS43 KGLD 302308
RWRGLD

GOODLAND FORECAST AREA HOURLY WEATHER ROUNDUP
NATIONAL WEATHER SERVICE GOODLAND KS
500 PM MDT SAT JUL 30 2016

...OFFICIAL OBSERVATIONS...

CITY           SKY/WX    TMP DP  RH WIND       PRES   REMARKS
GOODLAND KS    SUNNY     90  60  36 S17       29.92F
HILL CITY KS   SUNNY     89  66  46 SE13G22   29.89F
IMPERIAL NEB   SUNNY     89  57  33 S14       29.91F
MCCOOK NEB     SUNNY     91  62  37 SE14      29.90S
AKRON CO       SUNNY     85  60  42 SE17G25   29.97F
BURLINGTON CO  SUNNY     90  54  29 SE13      29.94F
LIMON CO       CLOUDY    91  52  26 MISG      30.00S
$$

...UNOFFICIAL OBSERVATIONS...

CITY           SKY/WX    TMP DP  RH WIND       PRES   REMARKS
COLBY KS       SUNNY     91  64  40 SE14G23   29.93S
LENORA KS        N/A     89  32  13 MISG        N/A
NORTON KS      SUNNY     88  57  35 SE13      29.90F
SHARON SPRINGS   N/A     93  66  41 NE13G20     N/A
KIT CARSON CO    N/A     91  55  29 CALM        N/A
YUMA CO          N/A     85  63  47 E14         N/A
$$




USA.gov is the U.S. government's official web portal to all federal, state and local government web resources and services.